Weather History for Durant, OK

Change the Weather History Date:

Monday, February 4, 2013

  Actual Average (KADM) Record (KADM)
Temperature  
Mean Temperature 58 °F -  
Max Temperature 69 °F 52 °F 80 °F (2008)
Min Temperature 46 °F 34 °F 19 °F (2011)
Degree Days  
Heating Degree Days 8    
Growing Degree Days 8 (Base 50)    
Moisture  
Dew Point 47 °F    
Average Humidity 71    
Maximum Humidity 100    
Minimum Humidity 47    
Precipitation  
Precipitation 0.03 in - - ()
Sea Level Pressure  
Sea Level Pressure 29.89 in    
Wind  
Wind Speed 8 mph (SSE)    
Max Wind Speed 22 mph    
Max Gust Speed 26 mph    
Visibility 9 miles    
Events Rain    
Averages and records for this station are not official NWS values.
T = Trace of Precipitation, MM = Missing Value Source: NWS Daily Summary

Daily Weather History Graph

Daily Weather History Graph

Search for Another Location

Airport:

Trip Planner

Search our weather history database for the weather conditions in past years. The results will help you decide how hot, cold, wet, or windy it might be!

Date:

Astronomy

Feb. 04, 2013 Rise Set
Actual Time 7:19 AM CST 5:59 PM CST
Civil Twilight 6:53 AM CST 6:25 PM CST
Nautical Twilight 6:24 AM CST 6:55 PM CST
Astronomical Twilight 5:54 AM CST 7:24 PM CST
Moon 1:53 AM CST (2/4) 12:28 PM CST (2/4)
Length of Visible Light 11h 31m
Length of Day
10h 39m
Last Quarter, 37% of the Moon is Illuminated
Feb 4
Last Quarter
Feb 10
New
Feb 17
First Quarter
Feb 25
Full
Mar 4
Last Quarter

Hourly Weather History & Observations

Time (CST) Temp. Windchill Dew Point Humidity Pressure Visibility Wind Dir Wind Speed Gust Speed Precip Events Conditions
12:15 AM 53.6 °F - 33.8 °F 47% 29.98 in 10.0 mi South 6.9 mph - N/A   Clear
12:35 AM 51.8 °F - 35.6 °F 54% 29.97 in 10.0 mi South 6.9 mph - N/A   Clear
12:55 AM 51.8 °F - 35.6 °F 54% 29.97 in 10.0 mi South 6.9 mph - N/A   Mostly Cloudy
1:15 AM 51.8 °F - 35.6 °F 54% 29.97 in 10.0 mi South 8.1 mph - N/A   Mostly Cloudy
1:55 AM 51.8 °F - 33.8 °F 50% 29.95 in 10.0 mi SSE 9.2 mph - N/A   Scattered Clouds
2:15 AM 51.8 °F - 33.8 °F 50% 29.95 in 10.0 mi South 6.9 mph - N/A   Clear
2:35 AM 51.8 °F - 33.8 °F 50% 29.94 in 10.0 mi South 6.9 mph - N/A   Clear
2:55 AM 51.8 °F - 35.6 °F 54% 29.94 in 10.0 mi South 6.9 mph - N/A   Scattered Clouds
3:15 AM 51.8 °F - 33.8 °F 50% 29.93 in 10.0 mi SSE 8.1 mph - N/A   Overcast
5:15 AM 53.6 °F - 35.6 °F 51% 29.89 in 10.0 mi South 16.1 mph - N/A   Light Drizzle
5:35 AM 53.6 °F - 37.4 °F 54% 29.89 in 10.0 mi South 6.9 mph - N/A   Scattered Clouds
6:15 AM 51.8 °F - 41.0 °F 67% 29.89 in 7.0 mi South 12.7 mph - 0.02 in Rain Heavy Rain
6:35 AM 50.0 °F - 42.8 °F 76% 29.89 in 10.0 mi South 15.0 mph 18.4 mph 0.03 in   Scattered Clouds
6:55 AM 51.8 °F - 44.6 °F 76% 29.89 in 10.0 mi South 12.7 mph - 0.03 in   Clear
7:15 AM 51.8 °F - 44.6 °F 76% 29.87 in 10.0 mi SSW 21.9 mph 26.5 mph N/A   Scattered Clouds
7:55 AM 51.8 °F - 46.4 °F 82% 29.89 in 10.0 mi South 17.3 mph - N/A   Scattered Clouds
8:15 AM 51.8 °F - 46.4 °F 82% 29.90 in 10.0 mi South 16.1 mph - N/A   Scattered Clouds
8:55 AM 51.8 °F - 46.4 °F 82% 29.91 in 10.0 mi South 11.5 mph 16.1 mph N/A   Scattered Clouds
9:15 AM 53.6 °F - 46.4 °F 77% 29.90 in 10.0 mi SSW 13.8 mph - N/A   Scattered Clouds
9:35 AM 53.6 °F - 46.4 °F 77% 29.91 in 10.0 mi SSW 11.5 mph - N/A   Clear
9:55 AM 55.4 °F - 46.4 °F 72% 29.90 in 10.0 mi South 13.8 mph 17.3 mph N/A   Clear
10:15 AM 57.2 °F - 48.2 °F 72% 29.91 in 10.0 mi SSW 11.5 mph - N/A   Clear
10:35 AM 59.0 °F - 48.2 °F 67% 29.90 in 10.0 mi SSW 8.1 mph - N/A   Clear
10:55 AM 60.8 °F - 50.0 °F 68% 29.90 in 10.0 mi SSW 12.7 mph - N/A   Clear
11:15 AM 60.8 °F - 50.0 °F 68% 29.91 in 10.0 mi SW 11.5 mph 16.1 mph N/A   Scattered Clouds
11:35 AM 62.6 °F - 51.8 °F 68% 29.89 in 10.0 mi SW 11.5 mph 18.4 mph N/A   Scattered Clouds
11:55 AM 62.6 °F - 51.8 °F 68% 29.88 in 10.0 mi SW 13.8 mph 18.4 mph N/A   Clear
12:35 PM 64.4 °F - 51.8 °F 64% 29.87 in 10.0 mi SW 8.1 mph - N/A   Mostly Cloudy
12:55 PM 66.2 °F - 51.8 °F 60% 29.86 in 10.0 mi SW 8.1 mph - N/A   Overcast
1:15 PM 64.4 °F - 51.8 °F 64% 29.85 in 10.0 mi SW 9.2 mph - N/A   Overcast
1:35 PM 64.4 °F - 53.6 °F 68% 29.84 in 10.0 mi SW 11.5 mph - N/A   Overcast
1:55 PM 66.2 °F - 51.8 °F 60% 29.84 in 10.0 mi West 6.9 mph - N/A   Overcast
2:15 PM 68.0 °F - 51.8 °F 56% 29.83 in 10.0 mi SW 5.8 mph - N/A   Overcast
2:35 PM 66.2 °F - 51.8 °F 60% 29.82 in 10.0 mi WSW 3.5 mph - N/A   Overcast
2:55 PM 69.8 °F - 51.8 °F 53% 29.82 in 10.0 mi West 3.5 mph - N/A   Mostly Cloudy
3:15 PM 69.8 °F - 51.8 °F 53% 29.82 in 10.0 mi Calm Calm - N/A   Scattered Clouds
3:35 PM 68.0 °F - 51.8 °F 56% 29.82 in 10.0 mi SSE 3.5 mph - N/A   Mostly Cloudy
3:55 PM 68.0 °F - 51.8 °F 56% 29.82 in 10.0 mi Calm Calm - N/A   Mostly Cloudy
4:15 PM 68.0 °F - 51.8 °F 56% 29.82 in 10.0 mi Calm Calm - N/A   Overcast
4:35 PM 68.0 °F - 51.8 °F 56% 29.83 in 10.0 mi Calm Calm - N/A   Scattered Clouds
4:55 PM 69.8 °F - 51.8 °F 53% 29.83 in 10.0 mi Calm Calm - N/A   Clear
5:15 PM 68.0 °F - 51.8 °F 56% 29.83 in 10.0 mi Calm Calm - N/A   Clear
5:35 PM 64.4 °F - 51.8 °F 64% 29.83 in 10.0 mi ESE 5.8 mph - N/A   Mostly Cloudy
5:55 PM 62.6 °F - 51.8 °F 68% 29.84 in 10.0 mi East 11.5 mph - N/A   Mostly Cloudy
6:15 PM 60.8 °F - 51.8 °F 72% 29.85 in 10.0 mi ESE 8.1 mph - N/A   Scattered Clouds
6:35 PM 59.0 °F - 51.8 °F 77% 29.86 in 10.0 mi East 8.1 mph - N/A   Scattered Clouds
6:55 PM 55.4 °F - 51.8 °F 88% 29.87 in 10.0 mi East 9.2 mph - N/A   Clear
7:15 PM 55.4 °F - 51.8 °F 88% 29.87 in 10.0 mi East 9.2 mph - N/A   Clear
7:35 PM 53.6 °F - 50.0 °F 88% 29.89 in 10.0 mi East 4.6 mph - N/A   Clear
7:55 PM 51.8 °F - 50.0 °F 94% 29.89 in 10.0 mi East 4.6 mph - N/A   Clear
8:15 PM 51.8 °F - 50.0 °F 94% 29.90 in 10.0 mi East 5.8 mph - N/A   Clear
8:35 PM 51.8 °F - 48.2 °F 88% 29.90 in 10.0 mi East 4.6 mph - N/A   Clear
8:55 PM 50.0 °F - 48.2 °F 94% 29.91 in 10.0 mi Calm Calm - N/A   Scattered Clouds
9:15 PM 50.0 °F - 50.0 °F 100% 29.92 in 10.0 mi East 4.6 mph - N/A   Scattered Clouds
9:35 PM 50.0 °F - 46.4 °F 87% 29.92 in 10.0 mi East 4.6 mph - N/A   Scattered Clouds
9:55 PM 50.0 °F - 48.2 °F 94% 29.92 in 10.0 mi ESE 5.8 mph - N/A   Clear
10:15 PM 50.0 °F - 46.4 °F 87% 29.92 in 7.0 mi ESE 4.6 mph - N/A   Clear
10:35 PM 46.4 °F 44.3 °F 46.4 °F 100% 29.93 in 5.0 mi ENE 4.6 mph - N/A   Clear
10:55 PM 46.4 °F 44.3 °F 46.4 °F 100% 29.93 in 4.0 mi East 4.6 mph - N/A   Clear
11:15 PM 46.4 °F 44.3 °F 44.6 °F 93% 29.93 in 4.0 mi East 4.6 mph - N/A   Clear
11:35 PM 46.4 °F 44.3 °F 44.6 °F 93% 29.94 in 2.5 mi ENE 4.6 mph - N/A   Clear
11:55 PM 46.4 °F 44.3 °F 44.6 °F 93% 29.93 in 2.5 mi ENE 4.6 mph - N/A   Clear